カタログに戻る

STARLINK-36854

運用中通信SSO
NORAD 68312·PAYLOAD·🇺🇸 United States

打ち上げ Mar 20, 2026 から Vandenberg Space Force Base

Loading…

次のパス (今後24時間)

TLE

最新Source: CelesTrak SupGP

元期: Sep 14, 2026, 23:00 UTC

1 68312C 26057U   26257.95881944 -.00040065  00000+0 -12440-2 0  2576
2 68312  97.2857  23.4516 0001042 104.4150 311.6505 15.33450986    19

AllMySatでSTARLINK-36854をリアルタイム追跡

Download on the App Store